owner,sensor,date,latitude,longitude,vertical_datum,sea_water_temperature,qcFlag
BP,ioos:station:wmo:42887:2,2021-01-01T00:01:00Z,28.1916,-88.4964,29.6,22.7,11111222
BP,ioos:station:wmo:42887:2,2021-01-01T00:11:00Z,28.1916,-88.4964,29.6,22.7,11111222
BP,ioos:station:wmo:42887:2,2021-01-01T00:21:00Z,28.1916,-88.4964,29.6,22.7,11111222
BP,ioos:station:wmo:42887:2,2021-01-01T00:31:00Z,28.1916,-88.4964,29.6,22.7,11111222
BP,ioos:station:wmo:42887:2,2021-01-01T00:41:00Z,28.1916,-88.4964,29.6,22.8,11111222
BP,ioos:station:wmo:42887:2,2021-01-01T00:51:00Z,28.1916,-88.4964,29.6,22.8,11111222
BP,ioos:station:wmo:42887:2,2021-01-01T01:01:00Z,28.1916,-88.4964,29.6,22.8,11111222
BP,ioos:station:wmo:42887:2,2021-01-01T01:11:00Z,28.1916,-88.4964,29.6,22.7,11111222
BP,ioos:station:wmo:42887:2,2021-01-01T01:21:00Z,28.1916,-88.4964,29.6,22.7,11111222
BP,ioos:station:wmo:42887:2,2021-01-01T01:31:00Z,28.1916,-88.4964,29.6,22.7,11111222
BP,ioos:station:wmo:42887:2,2021-01-01T01:41:00Z,28.1916,-88.4964,29.6,22.7,11111222
BP,ioos:station:wmo:42887:2,2021-01-01T01:51:00Z,28.1916,-88.4964,29.6,22.7,11111222
BP,ioos:station:wmo:42887:2,2021-01-01T02:01:00Z,28.1916,-88.4964,29.6,22.8,11111222
BP,ioos:station:wmo:42887:2,2021-01-01T02:11:00Z,28.1916,-88.4964,29.6,22.7,11111222
BP,ioos:station:wmo:42887:2,2021-01-01T02:21:00Z,28.1916,-88.4964,29.6,22.8,11111222
BP,ioos:station:wmo:42887:2,2021-01-01T02:31:00Z,28.1916,-88.4964,29.6,22.7,11111222
BP,ioos:station:wmo:42887:2,2021-01-01T02:41:00Z,28.1916,-88.4964,29.6,22.7,11111222
BP,ioos:station:wmo:42887:2,2021-01-01T02:51:00Z,28.1916,-88.4964,29.6,22.7,11111222
BP,ioos:station:wmo:42887:2,2021-01-01T03:01:00Z,28.1916,-88.4964,29.6,22.7,11111222
BP,ioos:station:wmo:42887:2,2021-01-01T03:11:00Z,28.1916,-88.4964,29.6,22.7,11111222
BP,ioos:station:wmo:42887:2,2021-01-01T03:21:00Z,28.1916,-88.4964,29.6,22.8,11111222
BP,ioos:station:wmo:42887:2,2021-01-01T03:31:00Z,28.1916,-88.4964,29.6,22.8,11111222
BP,ioos:station:wmo:42887:2,2021-01-01T03:41:00Z,28.1916,-88.4964,29.6,22.7,11111222
BP,ioos:station:wmo:42887:2,2021-01-01T03:51:00Z,28.1916,-88.4964,29.6,22.7,11111222
BP,ioos:station:wmo:42887:2,2021-01-01T04:01:00Z,28.1916,-88.4964,29.6,22.8,11111222
BP,ioos:station:wmo:42887:2,2021-01-01T04:11:00Z,28.1916,-88.4964,29.6,22.8,11111222
BP,ioos:station:wmo:42887:2,2021-01-01T04:21:00Z,28.1916,-88.4964,29.6,22.7,11111222
BP,ioos:station:wmo:42887:2,2021-01-01T04:31:00Z,28.1916,-88.4964,29.6,22.7,11111222
BP,ioos:station:wmo:42887:2,2021-01-01T04:41:00Z,28.1916,-88.4964,29.6,22.8,11111222
BP,ioos:station:wmo:42887:2,2021-01-01T04:51:00Z,28.1916,-88.4964,29.6,22.8,11111222
BP,ioos:station:wmo:42887:2,2021-01-01T05:01:00Z,28.1916,-88.4964,29.6,22.7,11111222
BP,ioos:station:wmo:42887:2,2021-01-01T05:11:00Z,28.1916,-88.4964,29.6,22.7,11111222
BP,ioos:station:wmo:42887:2,2021-01-01T05:21:00Z,28.1916,-88.4964,29.6,22.7,11111222
BP,ioos:station:wmo:42887:2,2021-01-01T05:31:00Z,28.1916,-88.4964,29.6,22.7,11111222
BP,ioos:station:wmo:42887:2,2021-01-01T05:41:00Z,28.1916,-88.4964,29.6,22.7,11111222
BP,ioos:station:wmo:42887:2,2021-01-01T05:51:00Z,28.1916,-88.4964,29.6,22.8,11111222
BP,ioos:station:wmo:42887:2,2021-01-01T06:01:00Z,28.1916,-88.4964,29.6,22.8,11111222
BP,ioos:station:wmo:42887:2,2021-01-01T06:11:00Z,28.1916,-88.4964,29.6,22.7,11111222
BP,ioos:station:wmo:42887:2,2021-01-01T06:21:00Z,28.1916,-88.4964,29.6,22.7,11111222
BP,ioos:station:wmo:42887:2,2021-01-01T06:31:00Z,28.1916,-88.4964,29.6,22.8,11111222
BP,ioos:station:wmo:42887:2,2021-01-01T06:41:00Z,28.1916,-88.4964,29.6,22.8,11111222
BP,ioos:station:wmo:42887:2,2021-01-01T06:51:00Z,28.1916,-88.4964,29.6,22.7,11111222
BP,ioos:station:wmo:42887:2,2021-01-01T07:01:00Z,28.1916,-88.4964,29.6,22.8,11111222
BP,ioos:station:wmo:42887:2,2021-01-01T07:11:00Z,28.1916,-88.4964,29.6,22.8,11111222
BP,ioos:station:wmo:42887:2,2021-01-01T07:21:00Z,28.1916,-88.4964,29.6,22.7,11111222
BP,ioos:station:wmo:42887:2,2021-01-01T07:31:00Z,28.1916,-88.4964,29.6,22.8,11111222
BP,ioos:station:wmo:42887:2,2021-01-01T07:41:00Z,28.1916,-88.4964,29.6,22.8,11111222
BP,ioos:station:wmo:42887:2,2021-01-01T07:51:00Z,28.1916,-88.4964,29.6,22.8,11111222
BP,ioos:station:wmo:42887:2,2021-01-01T08:01:00Z,28.1916,-88.4964,29.6,22.8,11111222
BP,ioos:station:wmo:42887:2,2021-01-01T08:11:00Z,28.1916,-88.4964,29.6,22.8,11111222
BP,ioos:station:wmo:42887:2,2021-01-01T08:21:00Z,28.1916,-88.4964,29.6,22.8,11111222
BP,ioos:station:wmo:42887:2,2021-01-01T08:31:00Z,28.1916,-88.4964,29.6,22.8,11111222
BP,ioos:station:wmo:42887:2,2021-01-01T08:41:00Z,28.1916,-88.4964,29.6,22.8,11111222
BP,ioos:station:wmo:42887:2,2021-01-01T08:51:00Z,28.1916,-88.4964,29.6,22.8,11111222
BP,ioos:station:wmo:42887:2,2021-01-01T09:01:00Z,28.1916,-88.4964,29.6,22.8,11111222
BP,ioos:station:wmo:42887:2,2021-01-01T09:11:00Z,28.1916,-88.4964,29.6,22.8,11111222
BP,ioos:station:wmo:42887:2,2021-01-01T09:21:00Z,28.1916,-88.4964,29.6,22.8,11111222
BP,ioos:station:wmo:42887:2,2021-01-01T09:31:00Z,28.1916,-88.4964,29.6,22.8,11111222
BP,ioos:station:wmo:42887:2,2021-01-01T09:41:00Z,28.1916,-88.4964,29.6,22.8,11111222
BP,ioos:station:wmo:42887:2,2021-01-01T09:51:00Z,28.1916,-88.4964,29.6,22.7,11111222
BP,ioos:station:wmo:42887:2,2021-01-01T10:01:00Z,28.1916,-88.4964,29.6,22.8,11111222
BP,ioos:station:wmo:42887:2,2021-01-01T10:11:00Z,28.1916,-88.4964,29.6,22.8,11111222
BP,ioos:station:wmo:42887:2,2021-01-01T10:21:00Z,28.1916,-88.4964,29.6,22.7,11111222
BP,ioos:station:wmo:42887:2,2021-01-01T10:31:00Z,28.1916,-88.4964,29.6,22.8,11111222
BP,ioos:station:wmo:42887:2,2021-01-01T10:41:00Z,28.1916,-88.4964,29.6,22.9,11111222
BP,ioos:station:wmo:42887:2,2021-01-01T10:51:00Z,28.1916,-88.4964,29.6,22.8,11111222
BP,ioos:station:wmo:42887:2,2021-01-01T11:01:00Z,28.1916,-88.4964,29.6,22.7,11111222
BP,ioos:station:wmo:42887:2,2021-01-01T11:11:00Z,28.1916,-88.4964,29.6,22.8,11111222
BP,ioos:station:wmo:42887:2,2021-01-01T11:21:00Z,28.1916,-88.4964,29.6,22.8,11111222
BP,ioos:station:wmo:42887:2,2021-01-01T11:31:00Z,28.1916,-88.4964,29.6,22.8,11111222
BP,ioos:station:wmo:42887:2,2021-01-01T11:41:00Z,28.1916,-88.4964,29.6,22.8,11111222
BP,ioos:station:wmo:42887:2,2021-01-01T11:51:00Z,28.1916,-88.4964,29.6,22.8,11111222
BP,ioos:station:wmo:42887:2,2021-01-01T12:01:00Z,28.1916,-88.4964,29.6,22.7,11111222
BP,ioos:station:wmo:42887:2,2021-01-01T12:11:00Z,28.1916,-88.4964,29.6,22.7,11111222
BP,ioos:station:wmo:42887:2,2021-01-01T12:21:00Z,28.1916,-88.4964,29.6,22.7,11111222
BP,ioos:station:wmo:42887:2,2021-01-01T12:31:00Z,28.1916,-88.4964,29.6,22.7,11111222
BP,ioos:station:wmo:42887:2,2021-01-01T12:41:00Z,28.1916,-88.4964,29.6,22.7,11111222
BP,ioos:station:wmo:42887:2,2021-01-01T12:51:00Z,28.1916,-88.4964,29.6,22.6,11111222
BP,ioos:station:wmo:42887:2,2021-01-01T13:01:00Z,28.1916,-88.4964,29.6,22.7,11111222
BP,ioos:station:wmo:42887:2,2021-01-01T13:11:00Z,28.1916,-88.4964,29.6,22.7,11111222
BP,ioos:station:wmo:42887:2,2021-01-01T13:21:00Z,28.1916,-88.4964,29.6,22.8,11111222
BP,ioos:station:wmo:42887:2,2021-01-01T13:31:00Z,28.1916,-88.4964,29.6,22.8,11111222
BP,ioos:station:wmo:42887:2,2021-01-01T13:41:00Z,28.1916,-88.4964,29.6,22.8,11111222
BP,ioos:station:wmo:42887:2,2021-01-01T13:51:00Z,28.1916,-88.4964,29.6,22.8,11111222
BP,ioos:station:wmo:42887:2,2021-01-01T14:01:00Z,28.1916,-88.4964,29.6,22.7,11111222
BP,ioos:station:wmo:42887:2,2021-01-01T14:11:00Z,28.1916,-88.4964,29.6,22.7,11111222
BP,ioos:station:wmo:42887:2,2021-01-01T14:21:00Z,28.1916,-88.4964,29.6,22.8,11111222
BP,ioos:station:wmo:42887:2,2021-01-01T14:31:00Z,28.1916,-88.4964,29.6,22.7,11111222
BP,ioos:station:wmo:42887:2,2021-01-01T14:41:00Z,28.1916,-88.4964,29.6,22.8,11111222
BP,ioos:station:wmo:42887:2,2021-01-01T14:51:00Z,28.1916,-88.4964,29.6,22.8,11111222
BP,ioos:station:wmo:42887:2,2021-01-01T15:01:00Z,28.1916,-88.4964,29.6,22.8,11111222
BP,ioos:station:wmo:42887:2,2021-01-01T15:11:00Z,28.1916,-88.4964,29.6,22.7,11111222
BP,ioos:station:wmo:42887:2,2021-01-01T15:21:00Z,28.1916,-88.4964,29.6,22.8,11111222
BP,ioos:station:wmo:42887:2,2021-01-01T15:31:00Z,28.1916,-88.4964,29.6,22.7,11111222
BP,ioos:station:wmo:42887:2,2021-01-01T15:41:00Z,28.1916,-88.4964,29.6,22.6,11111222
BP,ioos:station:wmo:42887:2,2021-01-01T15:51:00Z,28.1916,-88.4964,29.6,22.7,11111222
BP,ioos:station:wmo:42887:2,2021-01-01T16:01:00Z,28.1916,-88.4964,29.6,22.7,11111222
BP,ioos:station:wmo:42887:2,2021-01-01T16:11:00Z,28.1916,-88.4964,29.6,22.7,11111222
BP,ioos:station:wmo:42887:2,2021-01-01T16:21:00Z,28.1916,-88.4964,29.6,22.8,11111222
BP,ioos:station:wmo:42887:2,2021-01-01T16:31:00Z,28.1916,-88.4964,29.6,22.7,11111222
BP,ioos:station:wmo:42887:2,2021-01-01T16:41:00Z,28.1916,-88.4964,29.6,22.8,11111222
BP,ioos:station:wmo:42887:2,2021-01-01T16:51:00Z,28.1916,-88.4964,29.6,22.7,11111222
BP,ioos:station:wmo:42887:2,2021-01-01T17:01:00Z,28.1916,-88.4964,29.6,22.8,11111222
BP,ioos:station:wmo:42887:2,2021-01-01T17:11:00Z,28.1916,-88.4964,29.6,22.7,11111222
BP,ioos:station:wmo:42887:2,2021-01-01T17:21:00Z,28.1916,-88.4964,29.6,22.7,11111222
BP,ioos:station:wmo:42887:2,2021-01-01T17:31:00Z,28.1916,-88.4964,29.6,22.8,11111222
BP,ioos:station:wmo:42887:2,2021-01-01T17:41:00Z,28.1916,-88.4964,29.6,22.7,11111222
BP,ioos:station:wmo:42887:2,2021-01-01T17:51:00Z,28.1916,-88.4964,29.6,22.7,11111222
BP,ioos:station:wmo:42887:2,2021-01-01T18:01:00Z,28.1916,-88.4964,29.6,22.8,11111222
BP,ioos:station:wmo:42887:2,2021-01-01T18:11:00Z,28.1916,-88.4964,29.6,22.8,11111222
BP,ioos:station:wmo:42887:2,2021-01-01T18:21:00Z,28.1916,-88.4964,29.6,22.8,11111222
BP,ioos:station:wmo:42887:2,2021-01-01T18:31:00Z,28.1916,-88.4964,29.6,22.8,11111222
BP,ioos:station:wmo:42887:2,2021-01-01T18:41:00Z,28.1916,-88.4964,29.6,22.8,11111222
BP,ioos:station:wmo:42887:2,2021-01-01T18:51:00Z,28.1916,-88.4964,29.6,22.8,11111222
BP,ioos:station:wmo:42887:2,2021-01-01T19:01:00Z,28.1916,-88.4964,29.6,22.7,11111222
BP,ioos:station:wmo:42887:2,2021-01-01T19:11:00Z,28.1916,-88.4964,29.6,22.8,11111222
BP,ioos:station:wmo:42887:2,2021-01-01T19:21:00Z,28.1916,-88.4964,29.6,22.8,11111222
BP,ioos:station:wmo:42887:2,2021-01-01T19:31:00Z,28.1916,-88.4964,29.6,22.7,11111222
BP,ioos:station:wmo:42887:2,2021-01-01T19:41:00Z,28.1916,-88.4964,29.6,22.8,11111222
BP,ioos:station:wmo:42887:2,2021-01-01T19:51:00Z,28.1916,-88.4964,29.6,22.7,11111222
BP,ioos:station:wmo:42887:2,2021-01-01T20:01:00Z,28.1916,-88.4964,29.6,22.7,11111222
BP,ioos:station:wmo:42887:2,2021-01-01T20:11:00Z,28.1916,-88.4964,29.6,22.7,11111222
BP,ioos:station:wmo:42887:2,2021-01-01T20:21:00Z,28.1916,-88.4964,29.6,22.7,11111222
BP,ioos:station:wmo:42887:2,2021-01-01T20:31:00Z,28.1916,-88.4964,29.6,22.7,11111222
BP,ioos:station:wmo:42887:2,2021-01-01T20:41:00Z,28.1916,-88.4964,29.6,22.7,11111222
BP,ioos:station:wmo:42887:2,2021-01-01T20:51:00Z,28.1916,-88.4964,29.6,22.8,11111222
BP,ioos:station:wmo:42887:2,2021-01-01T21:01:00Z,28.1916,-88.4964,29.6,22.8,11111222
BP,ioos:station:wmo:42887:2,2021-01-01T21:11:00Z,28.1916,-88.4964,29.6,22.8,11111222
BP,ioos:station:wmo:42887:2,2021-01-01T21:21:00Z,28.1916,-88.4964,29.6,22.8,11111222
BP,ioos:station:wmo:42887:2,2021-01-01T21:31:00Z,28.1916,-88.4964,29.6,22.7,11111222
BP,ioos:station:wmo:42887:2,2021-01-01T21:41:00Z,28.1916,-88.4964,29.6,22.8,11111222
BP,ioos:station:wmo:42887:2,2021-01-01T21:51:00Z,28.1916,-88.4964,29.6,22.7,11111222
BP,ioos:station:wmo:42887:2,2021-01-01T22:01:00Z,28.1916,-88.4964,29.6,22.8,11111222
BP,ioos:station:wmo:42887:2,2021-01-01T22:11:00Z,28.1916,-88.4964,29.6,22.8,11111222
BP,ioos:station:wmo:42887:2,2021-01-01T22:21:00Z,28.1916,-88.4964,29.6,22.8,11111222
BP,ioos:station:wmo:42887:2,2021-01-01T22:31:00Z,28.1916,-88.4964,29.6,22.8,11111222
BP,ioos:station:wmo:42887:2,2021-01-01T22:41:00Z,28.1916,-88.4964,29.6,22.8,11111222
BP,ioos:station:wmo:42887:2,2021-01-01T22:51:00Z,28.1916,-88.4964,29.6,22.7,11111222
BP,ioos:station:wmo:42887:2,2021-01-01T23:01:00Z,28.1916,-88.4964,29.6,22.8,11111222
BP,ioos:station:wmo:42887:2,2021-01-01T23:11:00Z,28.1916,-88.4964,29.6,22.9,11111222
BP,ioos:station:wmo:42887:2,2021-01-01T23:21:00Z,28.1916,-88.4964,29.6,22.8,11111222
BP,ioos:station:wmo:42887:2,2021-01-01T23:31:00Z,28.1916,-88.4964,29.6,22.8,11111222
BP,ioos:station:wmo:42887:2,2021-01-01T23:41:00Z,28.1916,-88.4964,29.6,22.9,11111222
BP,ioos:station:wmo:42887:2,2021-01-01T23:51:00Z,28.1916,-88.4964,29.6,22.9,11111222
BP,ioos:station:wmo:42887:2,2021-01-02T00:01:00Z,28.1916,-88.4964,29.6,22.9,11111222
BP,ioos:station:wmo:42887:2,2021-01-02T00:11:00Z,28.1916,-88.4964,29.6,22.8,11111222
BP,ioos:station:wmo:42887:2,2021-01-02T00:21:00Z,28.1916,-88.4964,29.6,22.9,11111222
BP,ioos:station:wmo:42887:2,2021-01-02T00:31:00Z,28.1916,-88.4964,29.6,22.8,11111222
BP,ioos:station:wmo:42887:2,2021-01-02T00:41:00Z,28.1916,-88.4964,29.6,22.9,11111222
BP,ioos:station:wmo:42887:2,2021-01-02T00:51:00Z,28.1916,-88.4964,29.6,22.9,11111222
BP,ioos:station:wmo:42887:2,2021-01-02T01:01:00Z,28.1916,-88.4964,29.6,22.9,11111222
BP,ioos:station:wmo:42887:2,2021-01-02T01:11:00Z,28.1916,-88.4964,29.6,22.8,11111222
BP,ioos:station:wmo:42887:2,2021-01-02T01:21:00Z,28.1916,-88.4964,29.6,22.9,11111222
BP,ioos:station:wmo:42887:2,2021-01-02T01:31:00Z,28.1916,-88.4964,29.6,22.9,11111222
BP,ioos:station:wmo:42887:2,2021-01-02T01:41:00Z,28.1916,-88.4964,29.6,22.9,11111222
BP,ioos:station:wmo:42887:2,2021-01-02T01:51:00Z,28.1916,-88.4964,29.6,22.9,11111222
BP,ioos:station:wmo:42887:2,2021-01-02T02:01:00Z,28.1916,-88.4964,29.6,23.0,11111222
BP,ioos:station:wmo:42887:2,2021-01-02T02:11:00Z,28.1916,-88.4964,29.6,22.8,11111222
BP,ioos:station:wmo:42887:2,2021-01-02T02:21:00Z,28.1916,-88.4964,29.6,22.8,11111222
BP,ioos:station:wmo:42887:2,2021-01-02T02:31:00Z,28.1916,-88.4964,29.6,22.9,11111222
BP,ioos:station:wmo:42887:2,2021-01-02T02:41:00Z,28.1916,-88.4964,29.6,22.9,11111222
BP,ioos:station:wmo:42887:2,2021-01-02T02:51:00Z,28.1916,-88.4964,29.6,22.9,11111222
BP,ioos:station:wmo:42887:2,2021-01-02T03:01:00Z,28.1916,-88.4964,29.6,22.9,11111222
BP,ioos:station:wmo:42887:2,2021-01-02T03:11:00Z,28.1916,-88.4964,29.6,22.9,11111222
BP,ioos:station:wmo:42887:2,2021-01-02T03:21:00Z,28.1916,-88.4964,29.6,22.9,11111222
BP,ioos:station:wmo:42887:2,2021-01-02T03:31:00Z,28.1916,-88.4964,29.6,22.9,11111222
BP,ioos:station:wmo:42887:2,2021-01-02T03:41:00Z,28.1916,-88.4964,29.6,22.9,11111222
BP,ioos:station:wmo:42887:2,2021-01-02T03:51:00Z,28.1916,-88.4964,29.6,22.9,11111222
BP,ioos:station:wmo:42887:2,2021-01-02T04:01:00Z,28.1916,-88.4964,29.6,22.9,11111222
BP,ioos:station:wmo:42887:2,2021-01-02T04:11:00Z,28.1916,-88.4964,29.6,22.9,11111222
BP,ioos:station:wmo:42887:2,2021-01-02T04:21:00Z,28.1916,-88.4964,29.6,22.9,11111222
BP,ioos:station:wmo:42887:2,2021-01-02T04:31:00Z,28.1916,-88.4964,29.6,22.9,11111222
BP,ioos:station:wmo:42887:2,2021-01-02T04:41:00Z,28.1916,-88.4964,29.6,22.8,11111222
BP,ioos:station:wmo:42887:2,2021-01-02T04:51:00Z,28.1916,-88.4964,29.6,22.9,11111222
BP,ioos:station:wmo:42887:2,2021-01-02T05:01:00Z,28.1916,-88.4964,29.6,22.8,11111222
BP,ioos:station:wmo:42887:2,2021-01-02T05:11:00Z,28.1916,-88.4964,29.6,22.9,11111222
BP,ioos:station:wmo:42887:2,2021-01-02T05:21:00Z,28.1916,-88.4964,29.6,22.9,11111222
BP,ioos:station:wmo:42887:2,2021-01-02T05:31:00Z,28.1916,-88.4964,29.6,22.9,11111222
BP,ioos:station:wmo:42887:2,2021-01-02T05:41:00Z,28.1916,-88.4964,29.6,22.9,11111222
BP,ioos:station:wmo:42887:2,2021-01-02T05:51:00Z,28.1916,-88.4964,29.6,22.9,11111222
BP,ioos:station:wmo:42887:2,2021-01-02T06:01:00Z,28.1916,-88.4964,29.6,22.9,11111222
BP,ioos:station:wmo:42887:2,2021-01-02T06:11:00Z,28.1916,-88.4964,29.6,22.8,11111222
BP,ioos:station:wmo:42887:2,2021-01-02T06:21:00Z,28.1916,-88.4964,29.6,22.8,11111222
BP,ioos:station:wmo:42887:2,2021-01-02T06:31:00Z,28.1916,-88.4964,29.6,22.8,11111222
BP,ioos:station:wmo:42887:2,2021-01-02T06:41:00Z,28.1916,-88.4964,29.6,22.9,11111222
BP,ioos:station:wmo:42887:2,2021-01-02T06:51:00Z,28.1916,-88.4964,29.6,22.8,11111222
BP,ioos:station:wmo:42887:2,2021-01-02T07:01:00Z,28.1916,-88.4964,29.6,22.8,11111222
BP,ioos:station:wmo:42887:2,2021-01-02T07:11:00Z,28.1916,-88.4964,29.6,22.8,11111222
BP,ioos:station:wmo:42887:2,2021-01-02T07:21:00Z,28.1916,-88.4964,29.6,22.8,11111222
BP,ioos:station:wmo:42887:2,2021-01-02T07:31:00Z,28.1916,-88.4964,29.6,22.9,11111222
BP,ioos:station:wmo:42887:2,2021-01-02T07:41:00Z,28.1916,-88.4964,29.6,22.8,11111222
BP,ioos:station:wmo:42887:2,2021-01-02T07:51:00Z,28.1916,-88.4964,29.6,22.9,11111222
BP,ioos:station:wmo:42887:2,2021-01-02T08:01:00Z,28.1916,-88.4964,29.6,22.9,11111222
BP,ioos:station:wmo:42887:2,2021-01-02T08:11:00Z,28.1916,-88.4964,29.6,22.8,11111222
BP,ioos:station:wmo:42887:2,2021-01-02T08:21:00Z,28.1916,-88.4964,29.6,22.9,11111222
BP,ioos:station:wmo:42887:2,2021-01-02T08:31:00Z,28.1916,-88.4964,29.6,22.8,11111222
BP,ioos:station:wmo:42887:2,2021-01-02T08:41:00Z,28.1916,-88.4964,29.6,22.9,11111222
BP,ioos:station:wmo:42887:2,2021-01-02T08:51:00Z,28.1916,-88.4964,29.6,22.8,11111222
BP,ioos:station:wmo:42887:2,2021-01-02T09:01:00Z,28.1916,-88.4964,29.6,22.7,11111222
BP,ioos:station:wmo:42887:2,2021-01-04T21:31:00Z,28.1916,-88.4964,29.6,22.5,11111222
BP,ioos:station:wmo:42887:2,2021-01-04T21:41:00Z,28.1916,-88.4964,29.6,22.5,11111222
BP,ioos:station:wmo:42887:2,2021-01-04T21:51:00Z,28.1916,-88.4964,29.6,22.5,11111222
BP,ioos:station:wmo:42887:2,2021-01-04T22:01:00Z,28.1916,-88.4964,29.6,22.5,11111222
BP,ioos:station:wmo:42887:2,2021-01-04T22:11:00Z,28.1916,-88.4964,29.6,22.6,11111222
BP,ioos:station:wmo:42887:2,2021-01-04T22:21:00Z,28.1916,-88.4964,29.6,22.5,11111222
BP,ioos:station:wmo:42887:2,2021-01-04T22:31:00Z,28.1916,-88.4964,29.6,22.5,11111222
BP,ioos:station:wmo:42887:2,2021-01-04T22:41:00Z,28.1916,-88.4964,29.6,22.6,11111222
BP,ioos:station:wmo:42887:2,2021-01-04T22:51:00Z,28.1916,-88.4964,29.6,22.6,11111222
BP,ioos:station:wmo:42887:2,2021-01-04T23:01:00Z,28.1916,-88.4964,29.6,22.6,11111222
BP,ioos:station:wmo:42887:2,2021-01-04T23:11:00Z,28.1916,-88.4964,29.6,22.5,11111222
BP,ioos:station:wmo:42887:2,2021-01-04T23:21:00Z,28.1916,-88.4964,29.6,22.6,11111222
BP,ioos:station:wmo:42887:2,2021-01-04T23:31:00Z,28.1916,-88.4964,29.6,22.5,11111222
BP,ioos:station:wmo:42887:2,2021-01-04T23:41:00Z,28.1916,-88.4964,29.6,22.6,11111222
BP,ioos:station:wmo:42887:2,2021-01-04T23:51:00Z,28.1916,-88.4964,29.6,22.5,11111222
BP,ioos:station:wmo:42887:2,2021-01-05T00:01:00Z,28.1916,-88.4964,29.6,22.4,11111222
BP,ioos:station:wmo:42887:2,2021-01-05T00:11:00Z,28.1916,-88.4964,29.6,22.4,11111222
BP,ioos:station:wmo:42887:2,2021-01-05T00:21:00Z,28.1916,-88.4964,29.6,22.5,11111222
BP,ioos:station:wmo:42887:2,2021-01-05T00:31:00Z,28.1916,-88.4964,29.6,22.5,11111222
BP,ioos:station:wmo:42887:2,2021-01-05T00:41:00Z,28.1916,-88.4964,29.6,22.4,11111222
BP,ioos:station:wmo:42887:2,2021-01-05T00:51:00Z,28.1916,-88.4964,29.6,22.5,11111222
BP,ioos:station:wmo:42887:2,2021-01-05T01:01:00Z,28.1916,-88.4964,29.6,22.5,11111222
BP,ioos:station:wmo:42887:2,2021-01-05T01:11:00Z,28.1916,-88.4964,29.6,22.5,11111222
BP,ioos:station:wmo:42887:2,2021-01-05T01:21:00Z,28.1916,-88.4964,29.6,22.5,11111222
BP,ioos:station:wmo:42887:2,2021-01-05T01:31:00Z,28.1916,-88.4964,29.6,22.6,11111222
BP,ioos:station:wmo:42887:2,2021-01-05T01:41:00Z,28.1916,-88.4964,29.6,22.5,11111222
BP,ioos:station:wmo:42887:2,2021-01-05T01:51:00Z,28.1916,-88.4964,29.6,22.6,11111222
BP,ioos:station:wmo:42887:2,2021-01-05T02:01:00Z,28.1916,-88.4964,29.6,22.6,11111222
BP,ioos:station:wmo:42887:2,2021-01-05T02:11:00Z,28.1916,-88.4964,29.6,22.5,11111222
BP,ioos:station:wmo:42887:2,2021-01-05T02:21:00Z,28.1916,-88.4964,29.6,22.5,11111222
BP,ioos:station:wmo:42887:2,2021-01-05T02:31:00Z,28.1916,-88.4964,29.6,22.5,11111222
BP,ioos:station:wmo:42887:2,2021-01-05T02:41:00Z,28.1916,-88.4964,29.6,22.5,11111222
BP,ioos:station:wmo:42887:2,2021-01-05T02:51:00Z,28.1916,-88.4964,29.6,22.6,11111222
BP,ioos:station:wmo:42887:2,2021-01-05T03:01:00Z,28.1916,-88.4964,29.6,22.5,11111222
BP,ioos:station:wmo:42887:2,2021-01-05T03:11:00Z,28.1916,-88.4964,29.6,22.5,11111222
BP,ioos:station:wmo:42887:2,2021-01-05T03:21:00Z,28.1916,-88.4964,29.6,22.6,11111222
BP,ioos:station:wmo:42887:2,2021-01-05T03:31:00Z,28.1916,-88.4964,29.6,22.6,11111222
BP,ioos:station:wmo:42887:2,2021-01-05T03:41:00Z,28.1916,-88.4964,29.6,22.6,11111222
BP,ioos:station:wmo:42887:2,2021-01-05T03:51:00Z,28.1916,-88.4964,29.6,22.6,11111222
BP,ioos:station:wmo:42887:2,2021-01-05T04:01:00Z,28.1916,-88.4964,29.6,22.5,11111222
BP,ioos:station:wmo:42887:2,2021-01-05T04:11:00Z,28.1916,-88.4964,29.6,22.6,11111222
BP,ioos:station:wmo:42887:2,2021-01-05T04:21:00Z,28.1916,-88.4964,29.6,22.6,11111222
BP,ioos:station:wmo:42887:2,2021-01-05T04:31:00Z,28.1916,-88.4964,29.6,22.6,11111222
BP,ioos:station:wmo:42887:2,2021-01-05T04:41:00Z,28.1916,-88.4964,29.6,22.7,11111222
BP,ioos:station:wmo:42887:2,2021-01-05T04:51:00Z,28.1916,-88.4964,29.6,22.7,11111222
BP,ioos:station:wmo:42887:2,2021-01-05T05:01:00Z,28.1916,-88.4964,29.6,22.7,11111222
BP,ioos:station:wmo:42887:2,2021-01-05T05:11:00Z,28.1916,-88.4964,29.6,22.7,11111222
BP,ioos:station:wmo:42887:2,2021-01-05T05:21:00Z,28.1916,-88.4964,29.6,22.8,11111222
BP,ioos:station:wmo:42887:2,2021-01-05T05:31:00Z,28.1916,-88.4964,29.6,22.8,11111222
BP,ioos:station:wmo:42887:2,2021-01-05T05:41:00Z,28.1916,-88.4964,29.6,22.9,11111222
BP,ioos:station:wmo:42887:2,2021-01-05T05:51:00Z,28.1916,-88.4964,29.6,23.1,11111222
BP,ioos:station:wmo:42887:2,2021-01-05T06:01:00Z,28.1916,-88.4964,29.6,23.1,11111222
BP,ioos:station:wmo:42887:2,2021-01-05T06:11:00Z,28.1916,-88.4964,29.6,23.2,11111222
BP,ioos:station:wmo:42887:2,2021-01-05T06:21:00Z,28.1916,-88.4964,29.6,23.2,11111222
BP,ioos:station:wmo:42887:2,2021-01-05T06:31:00Z,28.1916,-88.4964,29.6,23.3,11111222
BP,ioos:station:wmo:42887:2,2021-01-05T06:41:00Z,28.1916,-88.4964,29.6,23.4,11111222
BP,ioos:station:wmo:42887:2,2021-01-05T06:51:00Z,28.1916,-88.4964,29.6,23.4,11111222
BP,ioos:station:wmo:42887:2,2021-01-05T07:01:00Z,28.1916,-88.4964,29.6,23.5,11111222
BP,ioos:station:wmo:42887:2,2021-01-05T07:11:00Z,28.1916,-88.4964,29.6,23.5,11111222
BP,ioos:station:wmo:42887:2,2021-01-05T07:21:00Z,28.1916,-88.4964,29.6,23.6,11111222
BP,ioos:station:wmo:42887:2,2021-01-05T07:31:00Z,28.1916,-88.4964,29.6,23.6,11111222
BP,ioos:station:wmo:42887:2,2021-01-05T07:41:00Z,28.1916,-88.4964,29.6,23.6,11111222
BP,ioos:station:wmo:42887:2,2021-01-05T07:51:00Z,28.1916,-88.4964,29.6,23.5,11111222
BP,ioos:station:wmo:42887:2,2021-01-05T08:01:00Z,28.1916,-88.4964,29.6,23.5,11111222
BP,ioos:station:wmo:42887:2,2021-01-05T08:11:00Z,28.1916,-88.4964,29.6,23.6,11111222
BP,ioos:station:wmo:42887:2,2021-01-05T08:21:00Z,28.1916,-88.4964,29.6,23.5,11111222
BP,ioos:station:wmo:42887:2,2021-01-05T08:31:00Z,28.1916,-88.4964,29.6,23.6,11111222
BP,ioos:station:wmo:42887:2,2021-01-05T08:41:00Z,28.1916,-88.4964,29.6,23.6,11111222
BP,ioos:station:wmo:42887:2,2021-01-05T08:51:00Z,28.1916,-88.4964,29.6,23.7,11111222
BP,ioos:station:wmo:42887:2,2021-01-05T09:01:00Z,28.1916,-88.4964,29.6,23.6,11111222
BP,ioos:station:wmo:42887:2,2021-01-05T09:11:00Z,28.1916,-88.4964,29.6,23.5,11111222
BP,ioos:station:wmo:42887:2,2021-01-05T09:21:00Z,28.1916,-88.4964,29.6,23.6,11111222
BP,ioos:station:wmo:42887:2,2021-01-05T09:31:00Z,28.1916,-88.4964,29.6,23.6,11111222
BP,ioos:station:wmo:42887:2,2021-01-05T09:41:00Z,28.1916,-88.4964,29.6,23.6,11111222
BP,ioos:station:wmo:42887:2,2021-01-05T09:51:00Z,28.1916,-88.4964,29.6,23.6,11111222
BP,ioos:station:wmo:42887:2,2021-01-05T10:01:00Z,28.1916,-88.4964,29.6,23.7,11111222
BP,ioos:station:wmo:42887:2,2021-01-05T10:11:00Z,28.1916,-88.4964,29.6,23.7,11111222
BP,ioos:station:wmo:42887:2,2021-01-05T10:21:00Z,28.1916,-88.4964,29.6,23.7,11111222
BP,ioos:station:wmo:42887:2,2021-01-05T10:31:00Z,28.1916,-88.4964,29.6,23.7,11111222